Temp
15 14 14 14 15 15 15 16 17 18 18 19 19 19 20 20 20 21 22 23 23 23 22 22 22 20 19 19 19 19 19 19 19 19 19 19 19 18 18 18 18 17 17 17 17 17 17 17 17 17 17 17 17 17 17 17 17 18 18 18 17 17 17 17 17 17 17 17 16 16 16 16 16 16 16 16 16 16 16 16 16 17 17 17 17 17
15 14 13 14 16 16 16 17 18 18 18 19 19 19 19 20 21 22 22 23 23 23 21 20 21 20 19 19 19 19 20 20 20 19 19 19 19 19 18 18 18 17 17 17 17 16 17 17 16 16 16 17 17 16 16 17 17 17 18 18 17 17 16 17 17 17 17 17 17 16 16 16 16 16 16 16 16 16 16 16 16 16 16 16 16 16
13 13 14 15 16 17 17 17 18 18 17 18 18 19 19 20 21 22 22 22 22 23 21 19 20 19 19 19 19 19 20 20 20 20 19 19 19 18 18 18 18 18 17 17 17 17 17 16 16 16 16 16 16 16 16 16 17 17 18 17 17 17 17 17 17 17 17 17 16 16 16 16 16 15 16 16 16 16 16 16 16 16 16 16 16 16
12 13 15 16 17 17 17 17 18 17 17 17 17 19 19 19 20 21 22 21 20 21 20 19 19 19 19 20 19 19 19 19 19 19 19 19 19 19 18 19 18 18 17 17 17 17 17 16 16 16 16 16 16 15 16 16 17 17 17 17 17 17 17 17 16 17 17 16 16 16 16 16 16 15 16 16 16 16 16 16 15 15 15 15 16 16
13 15 16 17 17 17 16 16 17 17 16 17 17 18 19 19 20 21 21 20 19 19 19 19 19 18 19 20 19 19 18 18 18 18 19 18 19 19 19 18 18 18 17 17 17 17 17 16 16 16 16 16 16 16 16 16 16 16 17 17 17 17 16 16 16 16 16 16 16 15 15 15 15 15 15 16 15 15 15 15 15 15 15 15 15 15
14 15 16 16 16 16 16 16 16 17 16 16 17 18 19 19 20 21 20 20 20 19 19 20 20 19 19 20 19 19 18 18 18 18 18 18 18 19 18 18 18 18 17 17 17 17 17 16 16 16 16 16 16 16 16 16 16 16 16 17 16 16 16 16 16 16 16 16 16 15 15 15 15 15 15 15 15 15 15 15 15 14 14 14 14 14
14 15 15 15 16 16 16 16 16 17 17 16 18 18 19 19 20 20 20 21 21 20 19 20 20 20 19 19 20 19 19 18 18 18 18 18 18 18 18 18 18 17 17 17 17 17 17 16 16 16 16 16 16 16 16 16 16 16 16 16 15 15 16 16 16 16 16 16 16 16 16 16 16 15 14 15 15 15 15 14 14 14 14 14 14 13
14 15 14 15 15 16 16 16 16 17 17 17 18 19 19 19 20 20 20 21 20 19 19 19 20 20 18 19 20 19 19 19 18 18 18 18 18 18 18 18 18 18 17 17 17 17 17 17 16 16 16 16 16 16 16 16 16 16 16 15 15 15 16 16 16 16 16 16 16 16 16 16 16 15 14 14 15 14 14 14 14 13 13 13 13 13
15 15 14 14 15 15 16 16 17 17 18 18 19 19 19 19 20 20 20 20 19 19 19 18 19 20 19 18 20 19 19 19 18 18 18 18 18 18 18 18 18 18 17 17 17 17 17 17 16 16 16 16 16 16 16 16 16 16 16 16 15 16 16 16 16 16 16 16 16 16 16 15 15 15 14 14 14 14 14 13 13 13 13 13 12 12
15 15 15 15 15 15 16 18 18 18 19 19 19 19 19 19 20 20 20 20 19 19 20 19 19 20 19 18 19 19 19 19 19 19 19 19 18 18 18 18 18 18 17 17 17 17 17 16 16 16 16 16 16 16 16 16 16 16 16 16 15 15 15 15 16 16 16 16 16 16 16 16 15 14 14 13 13 13 13 13 13 12 12 12 12 12
15 16 16 16 16 16 17 18 18 19 20 18 18 19 20 19 19 20 19 20 19 19 19 19 19 20 20 19 19 20 20 20 20 19 19 19 18 18 18 18 18 18 17 17 17 17 17 16 16 16 16 16 16 16 16 16 16 16 16 15 15 15 15 15 15 16 16 16 16 16 16 16 15 14 14 13 13 13 13 13 12 12 12 12 12 12
15 16 16 16 17 18 18 18 18 20 20 19 19 20 20 19 20 20 19 19 19 19 20 20 19 19 20 19 18 19 21 21 20 20 19 19 19 18 18 18 18 18 18 17 17 17 16 16 16 16 16 16 16 16 16 16 16 16 15 15 15 15 15 15 15 15 15 15 16 16 16 16 15 15 14 14 13 13 13 13 12 12 12 11 11 11
14 15 16 17 18 18 18 17 17 18 19 19 19 20 19 19 19 19 19 18 18 19 19 18 19 19 19 20 20 19 20 21 21 21 20 19 19 18 18 18 18 18 18 17 17 17 16 16 16 16 16 16 16 16 16 16 16 15 15 15 15 15 15 15 15 15 15 15 16 16 16 16 15 15 14 14 13 13 13 13 12 12 11 11 11 11
14 15 16 17 17 18 18 16 16 17 18 18 18 19 18 18 18 17 18 18 18 19 18 17 19 20 19 21 21 20 20 21 21 21 21 20 19 18 18 18 18 18 18 17 17 17 17 17 16 16 16 16 16 16 16 16 16 15 15 15 15 15 15 15 15 15 15 16 16 16 16 16 15 15 14 14 14 13 13 13 12 12 11 11 11 11
13 14 15 16 17 18 18 17 17 17 18 18 19 19 19 18 18 18 18 18 18 19 18 18 20 20 20 21 21 20 21 20 21 21 21 20 19 18 18 18 18 18 18 17 17 17 17 17 17 16 16 16 16 16 16 16 16 16 15 15 15 15 15 15 15 15 15 15 15 15 15 15 15 15 14 14 14 13 13 12 12 11 11 11 11 11
13 14 15 16 17 18 18 18 19 18 18 18 19 19 19 19 19 18 18 18 19 19 18 18 20 20 20 20 19 19 20 20 21 21 20 19 18 18 18 18 18 18 17 17 17 17 17 17 17 16 16 16 16 16 16 16 16 15 15 15 15 15 15 15 15 15 15 15 15 15 15 15 15 14 14 14 13 13 12 12 12 11 11 11 11 11
13 14 16 16 17 18 18 19 20 19 18 18 18 19 19 20 20 19 18 17 18 20 19 18 20 20 20 21 19 19 20 20 20 20 19 19 18 18 18 18 18 18 17 17 17 17 17 17 17 16 16 16 16 16 16 16 16 15 15 15 15 15 15 15 15 15 15 15 15 14 15 15 14 14 14 13 13 12 12 12 11 11 11 11 10 10
13 15 16 16 17 18 19 19 20 20 20 18 18 19 20 20 20 20 19 18 18 20 19 18 19 20 20 21 20 19 20 19 19 19 19 18 18 18 18 18 18 18 17 17 17 17 17 16 16 16 16 16 16 16 16 15 15 15 15 15 15 15 15 15 15 15 15 15 15 14 14 14 14 14 14 13 13 12 12 11 11 11 10 10 10 10
14 15 16 17 17 18 18 19 19 19 20 19 19 20 20 20 19 19 19 19 18 19 19 18 18 19 20 21 20 20 20 19 18 18 18 17 17 18 18 18 18 18 17 17 17 17 17 16 16 16 16 16 16 15 15 15 15 15 15 15 15 15 15 15 15 15 15 15 14 14 14 14 14 14 13 13 13 12 12 11 11 11 10 10 10 10
14 15 16 17 18 18 18 18 17 18 19 19 20 20 20 20 20 19 19 19 20 19 19 19 19 19 20 21 23 22 20 18 18 17 17 18 18 18 18 18 18 18 17 17 17 17 17 17 16 16 16 16 15 15 15 15 15 14 14 14 15 15 15 15 15 15 14 14 14 14 14 14 13 13 13 13 12 12 12 11 11 10 10 10 10 10
14 14 15 16 17 17 17 17 17 18 18 18 19 19 19 20 20 20 19 19 20 20 19 20 19 20 21 21 23 22 19 18 18 18 18 18 18 18 18 18 17 17 17 17 17 17 16 16 16 16 16 15 15 14 14 15 14 14 14 14 14 15 15 15 14 14 14 14 14 14 13 13 13 13 13 12 12 12 11 11 10 10 10 10 10 10
14 14 15 16 16 17 18 18 19 19 18 18 19 18 19 20 19 20 19 18 20 20 19 20 20 21 23 21 21 22 19 18 19 18 18 18 18 18 18 18 17 17 17 17 17 17 16 16 16 15 15 15 14 14 14 14 14 13 13 14 15 15 15 14 14 14 14 14 14 14 13 13 13 12 12 12 11 11 11 11 10 10 10 10 10 10
15 15 14 15 16 16 18 19 20 20 20 19 20 19 19 20 20 20 19 19 20 19 19 20 20 22 22 18 19 20 19 19 19 18 18 18 18 18 17 17 17 17 17 17 17 17 16 16 15 15 15 14 14 14 13 13 13 13 13 14 14 15 14 14 14 14 14 14 13 13 13 13 12 12 12 11 11 11 11 10 10 10 10 10 9 9
15 15 14 15 16 17 18 18 19 20 20 19 20 20 19 20 20 20 20 20 20 20 20 20 20 22 21 16 17 19 19 19 19 18 19 18 17 17 17 17 17 17 17 17 16 16 16 15 15 14 14 14 14 14 13 13 13 13 13 13 14 15 14 14 14 14 14 14 13 13 13 12 12 12 11 11 11 11 10 10 10 10 10 10 9 9
15 15 15 15 16 16 17 18 18 19 20 20 20 19 20 20 20 20 20 20 20 20 20 20 20 22 21 16 17 19 18 18 19 18 18 18 17 17 17 17 17 17 17 16 16 16 15 15 15 14 14 14 13 13 13 13 13 12 12 13 14 14 14 14 14 14 14 13 13 12 12 12 12 11 11 11 11 11 10 10 10 9 10 10 9 9
15 15 15 15 15 16 16 17 17 18 19 20 20 20 20 20 20 20 20 20 20 19 20 20 21 22 22 18 18 19 18 18 18 18 18 17 17 17 17 17 17 16 16 16 16 16 15 15 14 14 14 14 13 13 13 13 13 12 12 12 13 14 13 13 13 13 13 13 12 12 12 12 11 11 11 11 11 10 10 10 9 9 9 9 9 9
16 15 15 16 16 16 17 17 18 18 18 19 20 20 19 19 20 20 20 20 20 20 20 21 21 22 23 21 19 18 18 18 18 17 17 17 16 17 17 17 17 16 16 16 16 16 15 15 14 14 14 13 13 13 13 13 12 12 12 12 13 13 13 13 13 13 13 12 12 12 11 11 11 11 11 11 10 10 10 10 9 9 9 9 9 9
16 15 15 16 16 16 17 17 18 19 19 19 20 20 19 19 19 20 20 20 20 20 20 21 21 21 24 24 21 18 18 18 17 17 17 16 16 17 17 16 16 16 16 16 16 15 15 15 14 14 14 13 13 13 12 12 12 12 12 12 12 13 13 12 12 12 12 12 12 12 11 11 11 11 11 10 10 10 9 9 9 9 9 9 9 9
16 15 16 16 16 16 16 16 16 18 19 20 20 20 19 19 19 20 20 20 21 21 21 22 21 21 24 26 23 18 17 18 17 17 16 16 16 17 17 16 16 16 16 16 16 15 15 15 14 14 14 13 13 13 12 12 12 12 11 11 11 12 12 12 12 12 12 12 12 11 11 11 11 10 10 10 10 9 9 9 9 9 9 9 9 9
16 16 16 16 16 16 16 16 15 17 19 20 20 20 20 19 20 21 21 20 20 21 22 22 22 23 24 24 21 18 17 17 17 16 16 16 16 16 17 16 16 16 16 16 16 16 15 15 14 14 14 13 13 13 12 12 12 11 11 11 11 11 12 12 12 12 12 11 11 11 11 10 10 10 10 10 10 9 9 9 9 9 9 9 9 9
16 16 16 16 16 17 17 17 16 17 19 19 19 20 21 20 20 20 20 19 18 20 21 20 21 24 22 18 18 18 17 17 17 16 16 16 16 16 16 17 16 16 16 16 16 16 15 15 15 14 14 13 13 13 12 12 12 11 11 11 11 11 11 12 12 12 11 11 11 11 10 10 10 10 9 9 9 9 9 9 9 9 9 9 8 8
15 15 16 16 17 18 18 17 17 17 18 19 19 20 20 20 20 19 19 19 19 21 21 18 20 25 22 17 16 17 17 17 17 16 16 16 16 17 17 16 17 16 16 16 16 16 15 15 14 14 14 13 13 13 12 12 12 11 11 10 10 11 11 11 11 11 11 11 11 10 10 10 10 9 9 9 9 9 9 9 9 9 9 9 8 8
15 15 16 16 17 18 17 16 18 18 18 19 19 19 19 20 20 20 19 19 19 20 21 21 23 24 20 17 18 17 16 17 17 16 16 16 16 17 17 17 17 16 16 16 16 16 16 15 15 14 14 13 13 13 12 12 12 11 11 10 10 11 11 11 11 11 10 10 10 10 10 10 9 9 9 9 9 9 9 9 9 9 9 9 8 8
15 16 16 16 17 19 17 16 18 19 19 19 18 17 18 20 21 21 21 20 18 18 19 20 21 19 17 18 19 18 17 17 17 16 16 16 16 16 17 17 17 17 17 16 16 16 16 15 15 14 14 13 13 13 12 12 12 12 11 11 11 11 10 10 11 10 10 10 10 10 9 9 9 9 8 8 9 9 8 8 9 9 9 8 8 7
16 16 16 15 16 17 16 17 19 19 19 19 16 14 15 17 19 21 20 19 18 18 18 19 19 17 16 18 18 17 17 17 17 17 17 17 17 16 16 17 17 17 17 16 16 16 16 15 15 14 14 13 13 13 12 12 12 11 11 11 10 10 10 10 10 10 9 9 9 9 9 9 9 8 8 8 8 8 8 8 8 8 8 8 7 7
17 16 16 15 15 16 17 19 19 19 19 18 16 14 15 16 18 20 20 19 19 18 18 19 19 16 16 17 17 17 17 17 17 17 17 17 17 17 17 17 17 17 17 16 16 16 16 16 15 15 14 13 13 13 12 12 12 11 10 10 10 10 9 9 9 9 9 9 9 9 9 9 8 8 8 8 8 8 8 8 8 8 8 7 7 7
16 16 16 16 15 16 17 18 19 19 19 19 19 17 17 18 19 21 22 21 20 18 16 18 19 16 16 17 17 16 17 17 17 17 16 17 17 17 17 17 16 17 16 16 16 16 16 16 15 15 14 13 13 12 12 12 12 11 10 10 9 9 9 9 9 8 8 8 8 9 9 9 8 8 8 8 8 8 8 8 8 8 8 7 6 6
15 15 16 18 16 15 16 18 18 19 19 20 20 19 18 17 16 18 21 21 20 18 16 17 18 17 16 16 16 17 19 19 20 19 17 16 16 16 17 17 16 16 16 16 16 16 16 16 15 15 14 13 13 12 12 12 12 11 10 9 9 9 9 9 8 8 8 8 8 8 8 8 8 8 8 8 8 8 8 8 8 8 8 8 7 7
15 14 15 18 17 15 17 19 18 19 20 20 19 19 18 15 14 17 21 21 20 18 16 15 17 17 16 16 17 18 21 22 24 22 18 16 16 16 16 16 16 15 15 15 16 15 15 15 15 15 14 13 13 12 12 12 11 11 10 9 9 9 8 8 8 8 8 8 8 8 8 8 8 8 7 7 8 8 8 8 8 8 8 8 8 7
17 16 16 18 18 15 16 18 18 18 20 19 18 19 17 14 15 19 21 21 21 19 16 15 16 16 16 16 17 20 22 24 25 22 17 16 16 16 16 16 16 15 14 15 15 15 15 15 15 14 14 13 13 12 12 12 11 10 10 9 9 9 9 9 8 8 8 8 8 8 8 8 8 8 8 8 8 8 8 8 8 8 8 7 7 7
17 17 16 17 18 16 16 18 18 18 19 18 18 18 16 15 18 21 21 20 20 19 16 15 16 16 15 16 18 20 21 20 19 18 16 15 16 16 15 15 15 15 14 14 15 15 14 14 14 14 14 13 13 12 12 12 11 10 10 9 9 9 9 9 9 8 8 8 8 9 8 8 8 8 8 8 8 8 8 8 8 8 8 7 7 7
17 17 15 16 17 16 16 17 18 18 18 17 16 16 16 18 21 21 19 18 18 18 16 15 16 15 15 17 18 19 18 17 17 17 16 15 16 16 15 14 14 14 14 14 14 15 14 14 14 14 14 13 13 12 12 11 11 10 10 9 9 9 9 9 9 8 8 8 8 8 8 8 8 8 8 8 8 8 8 7 7 8 8 7 7 7
17 17 17 16 16 15 16 17 18 19 18 16 16 18 18 20 21 20 19 17 17 17 16 16 16 16 16 17 17 17 17 17 17 17 16 15 15 15 15 15 14 14 13 13 13 14 14 13 13 13 13 13 13 12 12 11 11 10 10 10 10 9 9 9 8 8 8 8 8 8 7 7 8 8 8 8 8 8 8 7 7 7 7 7 7 7
16 17 18 17 16 17 19 19 18 18 17 15 16 18 19 18 18 19 19 18 17 17 16 17 17 16 15 16 16 16 17 17 17 16 15 15 15 15 14 14 14 13 12 12 13 13 13 13 13 13 13 13 12 12 12 12 11 10 10 10 9 9 9 9 9 8 8 8 8 7 7 7 8 8 8 8 8 8 8 7 7 7 7 7 7 7
16 16 16 17 16 16 18 18 16 16 16 14 14 16 17 16 16 16 18 19 18 17 17 18 18 17 15 15 16 16 17 17 17 16 16 15 15 14 14 14 13 13 13 12 12 13 13 13 13 13 12 12 12 12 12 12 11 10 10 10 9 9 9 9 8 8 8 8 7 7 7 7 7 7 7 8 8 8 8 7 7 7 7 7 7 7
15 14 14 16 16 15 16 16 15 16 16 16 15 15 15 16 16 16 18 19 18 17 17 17 18 18 16 15 16 17 17 17 17 17 16 15 14 14 14 14 13 12 12 12 12 12 13 13 12 12 12 12 12 12 12 12 12 11 10 10 10 9 9 8 8 8 8 7 7 7 7 7 7 7 7 7 8 8 8 8 7 7 7 7 7 7
14 14 14 16 16 16 17 17 16 16 16 16 15 16 16 16 16 16 17 18 17 17 17 17 17 18 16 16 18 18 16 15 17 17 15 14 14 14 14 13 12 12 12 12 12 12 12 12 12 11 11 11 11 12 12 12 12 11 10 10 9 9 9 8 8 7 7 7 6 6 6 6 6 6 6 7 7 8 8 8 7 7 6 6 7 7
15 15 15 16 16 16 17 17 16 15 15 15 15 16 16 16 16 15 15 15 15 15 15 15 16 17 18 17 18 18 17 15 15 16 15 14 13 13 13 13 12 11 11 12 12 12 12 12 11 11 11 11 11 12 12 12 11 11 10 10 9 9 8 8 8 7 7 6 6 6 6 6 6 6 6 6 7 7 7 7 7 7 7 7 7 7
15 15 16 16 16 16 16 16 16 16 16 16 15 15 15 15 15 15 15 15 15 16 16 15 14 15 17 17 17 18 18 16 14 14 14 13 13 13 12 12 11 11 11 11 12 12 12 12 11 11 11 11 11 11 12 12 11 11 10 10 9 9 8 8 8 7 7 6 6 6 6 6 6 6 6 6 7 7 7 7 7 7 7 7 7 7
15 16 15 15 16 17 17 17 17 17 18 17 16 15 15 14 14 16 17 17 17 17 17 17 15 14 14 15 15 17 19 16 14 14 14 13 13 13 12 10 10 11 11 11 12 12 12 12 11 11 11 11 11 11 12 12 11 11 10 10 9 9 9 8 7 7 7 6 6 6 6 6 6 6 6 6 6 6 7 7 7 8 8 8 7 8
16 16 16 16 17 17 17 17 16 17 18 17 15 15 14 13 14 16 17 16 17 17 17 19 19 17 17 15 13 14 17 17 14 13 14 13 12 11 11 10 10 10 10 11 12 12 12 12 11 11 11 11 11 11 11 11 11 11 10 10 9 9 9 8 8 7 7 6 6 6 6 6 6 6 6 6 6 6 6 6 6 7 7 8 8 8
Height
754 759 759 755 752 751 752 752 751 753 750 749 755 758 757 758 759 757 751 745 746 753 760 760 763 771 774 773 772 771 771 773 774 776 777 777 778 779 781 782 783 783 783 784 786 787 788 790 792 794 795 797 798 799 800 801 802 804 806 808 810 812 815 817 817 818 820 821 823 825 826 828 829 830 831 833 834 835 836 836 837 838 839 840 841 842
754 757 753 747 747 748 752 754 752 753 753 751 753 755 758 757 755 752 748 746 744 749 761 763 764 771 772 771 770 769 771 772 771 773 775 775 777 778 779 780 781 782 783 784 785 787 788 790 791 793 794 795 796 797 798 800 802 804 806 808 809 811 814 816 817 818 819 821 822 824 826 827 829 831 831 833 835 836 837 837 838 838 839 841 842 842
757 752 746 745 747 747 750 752 751 754 756 757 756 755 759 758 754 751 747 747 747 749 763 768 767 773 772 768 769 768 769 769 767 769 771 773 775 777 777 778 780 781 782 783 784 786 787 788 790 791 793 795 795 796 797 799 801 803 805 808 809 811 814 816 817 818 819 821 822 823 825 827 829 831 832 833 835 836 837 838 839 839 840 841 842 842
757 748 743 744 745 746 750 752 753 756 758 760 759 757 759 758 756 754 750 751 754 754 762 769 772 776 772 769 771 769 769 769 768 769 770 772 773 775 775 776 779 780 781 782 783 785 786 787 789 791 792 794 795 797 798 799 801 802 804 806 809 811 813 816 817 819 820 821 823 824 826 827 828 830 832 833 835 837 837 839 840 840 841 841 842 842
750 744 740 741 743 747 751 753 754 758 761 762 760 757 756 755 753 752 752 754 759 762 762 767 779 783 775 772 773 770 771 770 769 771 771 772 772 773 775 775 777 778 779 781 782 783 784 786 788 790 792 794 795 797 798 799 800 802 804 806 809 811 814 816 818 819 820 821 823 825 827 828 829 831 832 834 836 837 838 839 840 841 841 841 842 842
749 742 739 740 743 746 750 754 754 755 762 763 760 755 752 753 752 752 753 754 761 771 766 763 779 787 776 772 773 771 771 772 771 772 772 772 772 773 774 775 775 777 779 780 780 781 782 784 787 789 791 793 794 796 796 798 800 802 804 807 810 813 815 817 818 819 819 821 822 824 825 826 828 830 832 834 836 837 839 839 840 841 841 842 842 843
747 742 741 742 743 745 749 753 751 751 761 765 756 750 750 751 752 753 753 754 761 769 764 758 768 782 781 773 770 770 772 772 772 772 772 772 771 771 772 773 774 776 777 779 780 781 782 784 786 788 790 792 793 795 796 798 800 803 806 809 812 815 816 817 817 818 819 820 822 823 825 825 826 829 831 834 836 837 838 839 840 841 841 842 842 843
742 742 744 744 743 745 748 751 749 747 757 760 749 746 750 751 753 755 754 756 762 765 765 762 760 773 783 773 765 768 772 773 773 772 771 770 769 769 770 771 773 774 775 777 779 780 782 783 785 786 789 791 793 794 796 799 801 804 807 810 813 815 816 817 817 818 819 820 822 823 825 826 827 829 831 834 836 837 838 839 840 840 841 842 843 844
737 740 744 745 746 746 745 744 744 745 750 749 743 744 748 749 751 753 754 757 762 767 771 769 761 767 779 772 763 768 771 771 772 770 768 767 766 767 769 770 771 772 773 775 777 779 781 782 784 786 788 791 793 794 796 799 801 804 808 809 811 813 815 816 817 818 819 820 822 823 824 825 828 830 832 834 836 837 838 838 839 840 841 843 844 846
736 736 737 742 746 745 741 739 740 743 744 741 742 744 746 749 751 753 757 758 763 770 769 766 762 764 773 772 765 767 770 768 767 765 763 763 764 765 767 768 769 770 772 773 775 778 779 781 783 785 788 791 793 795 796 799 801 804 806 806 808 812 814 816 816 817 819 820 821 823 824 825 828 830 832 834 835 837 838 838 839 841 842 844 845 847
733 732 733 738 740 738 736 736 738 738 738 741 745 745 748 754 753 755 759 759 768 773 763 758 760 761 767 770 764 759 758 757 758 760 759 759 761 762 763 765 767 768 769 771 774 776 779 780 782 785 787 790 792 794 796 798 800 803 805 806 809 812 814 815 817 818 819 820 821 823 825 826 828 830 831 833 835 836 837 838 839 841 843 844 846 847
734 735 735 733 731 732 734 737 738 734 734 740 742 742 752 758 755 759 764 766 773 769 754 752 758 764 767 764 759 751 744 745 749 752 753 753 755 757 759 762 764 765 767 769 772 775 777 779 781 783 786 789 791 793 795 796 799 802 805 807 809 811 812 813 817 818 819 820 822 824 825 826 827 829 830 832 834 836 837 838 839 841 843 845 847 848
737 736 734 730 728 729 733 740 742 738 736 740 742 744 757 765 766 769 770 770 771 762 756 757 756 764 765 751 748 749 742 740 740 740 741 744 748 752 755 758 761 763 765 767 770 772 775 777 779 782 784 787 789 792 794 795 797 801 804 807 809 810 811 813 815 817 819 820 822 824 825 827 828 829 830 832 834 836 837 838 840 842 844 845 847 848
742 738 734 732 730 726 729 740 745 743 740 740 742 745 754 764 772 777 773 770 768 759 760 761 754 760 760 741 736 740 736 732 730 730 733 737 744 748 752 756 759 761 763 764 767 769 772 776 777 780 783 786 788 790 793 794 797 800 803 806 809 810 812 813 814 816 818 820 822 824 826 827 829 829 830 833 835 837 838 839 841 843 845 846 847 848
746 744 735 732 731 725 726 733 735 737 739 738 737 740 746 751 758 768 767 766 767 764 764 762 755 755 750 735 729 728 726 726 726 729 732 737 743 747 752 756 757 759 761 762 765 767 770 774 777 780 782 784 787 789 791 794 797 800 803 805 807 809 811 812 813 815 817 820 822 823 825 827 828 830 831 834 836 837 839 840 842 844 845 847 848 849
743 742 730 725 725 723 726 728 724 731 741 740 736 740 744 741 743 755 761 759 760 761 765 763 753 746 738 729 729 728 726 728 728 729 734 738 743 747 751 754 755 757 759 760 763 765 768 772 775 778 781 783 786 787 790 793 796 799 802 805 806 807 809 811 813 815 817 819 821 823 825 827 828 830 832 834 836 838 839 841 843 845 846 847 848 849
743 739 727 724 725 722 723 724 721 727 737 740 740 740 738 732 734 748 760 762 758 754 760 761 750 743 737 728 728 730 728 729 730 730 734 737 740 745 748 750 752 755 757 758 760 763 766 770 774 777 779 782 784 786 789 792 796 799 801 804 806 806 807 810 812 814 816 818 821 823 825 826 828 831 833 834 836 838 840 842 843 845 847 848 849 850
739 736 725 724 727 723 719 719 720 720 724 735 740 735 731 732 735 742 752 762 763 756 757 760 753 747 743 733 730 731 730 731 732 731 734 738 740 742 744 746 748 751 754 756 758 761 764 768 772 775 778 781 784 786 788 792 795 798 801 803 805 806 807 810 812 814 816 818 820 822 824 827 829 831 833 835 837 838 840 842 844 845 847 848 850 851
734 733 725 722 724 722 718 721 726 722 718 726 729 726 730 740 745 747 752 758 763 762 758 758 757 751 742 734 727 726 728 730 732 733 735 738 738 738 739 742 745 748 752 755 757 759 762 766 770 773 776 779 783 786 788 791 794 797 800 802 804 806 807 809 812 814 816 818 820 822 825 827 830 831 834 835 837 838 840 842 844 846 847 849 851 852
732 732 729 722 718 719 721 725 730 728 723 723 723 724 729 734 737 742 750 751 752 759 759 755 757 750 736 725 716 715 721 724 728 732 733 731 731 731 733 737 741 744 748 752 755 758 760 764 768 772 775 778 782 786 787 790 794 797 799 801 803 805 807 809 812 813 816 818 820 823 825 828 830 832 834 835 836 839 840 842 844 846 848 850 851 853
733 733 730 724 718 721 724 722 722 725 727 727 728 731 730 730 732 736 745 746 742 751 758 755 754 739 720 713 707 707 715 718 719 723 725 725 725 726 729 733 737 741 746 749 753 757 759 762 766 771 775 778 781 785 788 790 794 796 799 801 802 805 807 809 812 813 815 818 820 823 825 828 830 832 834 835 837 839 841 843 845 847 849 850 852 853
733 733 731 728 724 723 719 713 713 717 722 725 726 730 728 728 734 740 749 748 739 743 750 752 749 726 705 705 703 702 710 713 712 714 716 719 721 723 727 730 734 739 743 747 751 755 759 761 765 769 773 777 780 784 788 790 793 796 798 800 802 804 807 809 812 814 816 818 821 823 825 828 830 832 834 835 837 839 841 843 846 848 849 851 852 854
730 732 734 732 727 724 716 710 711 711 715 720 720 723 726 726 731 738 747 745 739 744 746 747 744 719 702 709 707 701 706 708 709 712 713 717 719 723 727 730 735 739 742 746 749 754 759 761 764 768 772 776 779 783 788 790 793 795 797 799 801 803 807 809 812 814 816 818 821 823 825 827 830 832 833 835 837 840 842 844 846 848 850 851 853 854
727 732 734 731 724 721 716 711 711 708 712 719 719 719 722 722 722 726 733 735 735 740 741 745 745 718 702 712 710 702 706 706 709 713 715 720 723 726 730 732 735 739 742 746 749 753 758 761 764 768 771 775 778 782 787 789 792 795 796 799 800 803 807 809 812 814 816 818 821 823 826 827 830 832 833 836 838 840 842 844 847 849 850 852 853 854
727 731 733 734 730 726 724 722 721 716 714 715 716 717 716 716 720 724 728 730 732 734 733 740 741 716 703 714 710 703 708 708 710 713 715 720 724 726 730 732 735 739 742 745 748 752 756 760 764 768 770 774 778 781 786 788 791 794 796 798 800 803 807 809 811 813 815 818 820 823 825 827 829 832 833 836 838 840 843 845 847 849 850 852 853 854
726 729 729 732 734 733 731 728 725 719 714 711 710 713 713 714 719 723 726 731 733 736 734 733 728 710 702 713 712 706 709 710 712 714 715 720 724 725 729 732 735 739 742 745 748 751 755 759 763 767 770 774 778 781 785 787 789 793 796 797 799 802 805 808 810 813 815 818 820 822 825 827 829 831 833 836 838 840 843 845 847 849 850 851 852 853
723 726 725 726 727 726 723 718 714 712 713 712 710 711 714 716 718 720 726 730 730 734 734 724 718 709 699 705 711 709 709 710 712 714 715 719 722 724 728 731 734 738 741 744 747 750 754 758 762 766 770 774 777 781 784 785 788 792 795 797 799 801 804 807 810 812 815 817 819 822 824 826 829 831 833 836 838 840 843 845 847 849 850 851 852 853
721 724 724 724 722 720 717 714 712 709 709 711 711 712 715 717 719 721 725 725 724 731 730 718 717 716 699 694 704 709 709 710 712 712 714 717 720 723 727 731 734 738 741 743 746 749 753 757 761 764 768 773 776 779 783 784 786 791 794 795 797 800 803 806 809 811 814 817 819 821 824 826 828 830 833 835 838 840 842 845 847 848 849 850 852 853
721 724 722 721 721 717 715 715 715 710 704 704 707 710 714 717 719 719 721 719 718 721 719 713 715 712 695 686 695 704 707 707 708 709 711 714 719 722 726 730 733 737 741 744 747 749 752 756 759 763 767 771 774 777 781 784 786 790 793 794 796 799 801 805 807 810 813 815 818 820 822 825 828 830 833 835 837 840 842 844 846 847 848 850 851 852
721 723 718 719 720 715 711 712 714 712 705 703 705 704 707 713 714 712 713 715 717 714 709 710 711 702 691 690 695 702 707 707 709 712 714 716 719 722 725 729 732 736 739 741 744 747 750 753 757 761 765 769 772 775 779 782 785 788 791 793 795 797 800 803 806 809 811 814 817 819 821 824 827 829 832 834 836 839 841 843 845 846 848 849 850 852
721 721 717 718 718 710 704 705 709 709 704 702 704 702 703 708 712 713 714 719 722 716 710 716 713 698 694 701 702 701 704 707 710 713 716 718 719 721 725 728 731 734 736 739 742 745 748 752 756 760 763 766 769 773 777 780 784 788 790 792 794 796 799 802 804 807 810 813 815 818 820 823 826 828 831 833 836 838 840 842 844 845 847 848 850 851
721 721 717 718 716 706 701 703 705 705 704 703 704 703 703 706 709 712 714 714 714 709 712 722 713 693 693 703 704 703 704 706 710 713 715 718 718 720 723 726 728 731 734 737 740 743 747 750 753 757 760 763 767 772 775 778 782 786 790 792 793 796 798 801 803 806 809 811 814 817 819 822 825 828 830 832 835 837 839 841 843 844 846 847 849 850
721 720 716 718 715 705 704 708 703 704 710 709 703 700 700 701 703 707 708 707 707 704 706 709 697 687 695 702 701 704 706 705 707 708 709 713 716 718 720 721 724 727 730 734 737 740 743 746 750 753 757 761 766 770 773 775 778 782 787 790 792 795 798 800 802 805 808 810 813 815 818 821 824 827 829 831 834 836 838 840 842 844 845 847 848 849
720 718 718 720 713 704 707 708 703 707 714 707 699 699 699 696 695 698 700 703 705 704 702 699 694 695 700 697 694 699 702 701 701 702 702 705 710 715 717 719 722 725 728 732 735 737 741 745 749 753 756 760 765 768 772 775 777 780 785 788 790 793 795 798 800 803 806 809 811 814 817 820 823 825 828 830 833 835 837 840 841 843 845 846 847 848
716 715 719 723 717 710 710 707 706 712 708 697 700 707 706 700 695 693 698 702 703 703 702 699 698 699 699 695 694 697 699 698 699 702 704 704 706 709 713 717 720 723 727 730 733 736 740 743 747 751 754 759 763 767 771 774 777 781 784 787 789 791 794 796 798 801 804 807 810 813 815 818 821 824 826 829 831 834 836 838 840 842 844 846 847 847
712 715 719 722 720 715 709 705 706 707 700 694 700 706 705 703 699 694 698 701 699 700 702 697 695 700 701 697 697 698 698 699 701 703 705 705 706 708 711 714 716 719 721 724 727 731 735 738 742 746 751 756 761 765 769 772 776 780 783 786 788 790 793 795 797 799 803 806 809 811 814 816 819 822 824 827 829 831 834 837 839 841 843 845 846 847
713 716 715 715 719 718 712 707 704 702 700 697 696 697 697 697 694 690 692 695 695 699 703 698 694 699 700 696 698 699 697 700 705 706 705 705 707 709 710 712 714 717 720 723 727 732 735 739 743 747 752 756 760 764 767 770 774 778 781 785 787 790 793 795 796 798 801 804 806 809 811 813 816 819 822 825 827 829 832 835 838 840 842 844 845 846
714 717 712 709 717 721 715 709 707 707 705 697 691 691 693 695 697 693 690 692 693 696 701 699 695 697 698 698 699 697 695 699 703 702 702 704 706 708 710 713 715 718 721 724 728 732 736 740 744 747 751 755 759 762 766 769 773 776 780 783 786 789 792 794 796 798 800 802 805 808 811 814 816 819 821 823 826 828 831 833 836 839 841 843 844 845
712 718 715 707 712 719 712 705 708 708 701 695 691 690 692 698 699 695 693 695 692 692 698 699 695 695 696 696 696 693 693 696 694 691 696 701 703 705 708 712 715 718 720 723 725 729 733 737 742 746 749 753 757 761 764 768 771 775 778 781 784 787 790 792 794 797 799 802 806 810 814 817 820 822 824 825 826 828 831 833 835 838 840 842 843 844
706 709 711 706 710 719 714 705 708 705 696 694 693 689 693 698 695 694 701 701 691 689 696 697 694 694 695 696 695 691 688 689 687 687 693 697 700 703 706 709 713 716 719 722 725 728 732 735 739 743 747 750 754 758 762 766 770 773 775 778 782 785 787 790 793 796 798 802 806 809 813 815 818 822 825 826 827 829 831 832 834 837 839 842 843 844
707 708 714 711 709 715 714 706 707 704 695 694 693 691 694 696 694 697 702 697 688 689 695 695 694 695 694 694 692 688 687 689 689 690 692 695 698 703 705 708 711 714 717 720 723 727 731 734 737 740 744 748 752 756 760 764 768 771 774 777 780 782 785 789 792 795 798 801 804 807 810 812 815 818 821 824 827 830 831 832 834 836 838 841 842 844
709 710 715 713 711 716 715 709 707 704 697 695 694 693 693 693 693 695 695 692 690 691 692 694 694 694 693 691 689 689 691 693 692 692 694 696 698 701 704 707 711 714 717 720 722 725 729 732 736 739 743 747 751 754 758 762 765 769 772 775 777 780 783 787 790 793 796 799 802 805 807 810 813 816 820 823 826 829 831 832 834 835 837 840 841 843
709 707 710 712 714 717 715 709 708 704 699 697 695 691 689 690 690 688 688 691 692 691 692 694 693 693 692 690 690 692 693 693 693 694 696 698 700 702 705 706 709 712 715 718 721 724 727 731 735 738 742 746 749 753 757 760 763 767 770 772 775 778 782 785 788 791 794 797 801 804 806 809 812 815 819 821 823 826 829 831 833 835 836 838 840 842
711 708 707 709 711 711 707 706 708 704 700 700 698 692 690 690 689 687 687 689 690 690 691 691 690 692 693 692 693 695 694 694 696 696 697 700 701 703 705 707 709 711 714 716 719 722 725 729 734 738 741 745 748 751 755 757 761 765 768 770 774 777 780 783 787 790 793 796 799 802 805 808 811 813 817 819 821 824 827 829 831 833 835 838 839 841
709 707 706 706 707 707 705 704 705 703 701 702 701 697 694 692 692 692 689 687 688 690 690 689 689 691 694 694 695 696 695 695 696 696 698 700 701 703 706 707 709 711 713 716 719 721 724 728 732 736 740 743 747 750 753 756 759 762 766 769 772 775 778 782 785 788 791 794 797 800 803 807 809 811 815 817 819 821 824 826 829 831 834 836 838 840
709 709 708 705 705 707 707 704 704 703 701 701 701 699 696 694 694 693 689 687 689 690 690 690 689 690 693 695 695 694 695 695 694 695 697 699 701 704 705 707 710 712 714 716 719 721 725 728 732 735 739 743 746 749 752 755 758 760 763 767 770 773 776 780 783 786 789 792 795 798 802 805 807 809 813 815 817 818 821 824 826 829 831 834 837 838
708 709 707 705 705 706 704 702 702 703 703 704 703 699 697 695 695 693 691 690 690 690 690 691 691 690 692 693 691 692 695 696 695 696 698 700 702 704 705 708 710 712 714 717 719 722 725 728 731 735 738 742 745 748 752 755 757 760 762 765 768 772 775 778 781 785 788 791 794 797 800 802 805 808 811 814 815 817 820 822 824 827 829 831 834 836
706 706 706 706 707 706 703 701 702 704 705 706 705 701 699 698 697 696 695 694 694 694 694 694 693 692 691 691 691 691 694 697 697 697 699 701 702 704 706 709 710 712 715 717 720 722 725 727 731 734 737 740 743 746 750 753 756 759 761 764 767 771 774 777 780 783 786 789 792 795 798 800 803 806 809 812 814 816 818 821 823 825 826 828 829 832
705 704 705 707 707 706 704 702 702 704 704 704 704 703 702 701 699 698 698 697 696 696 696 697 697 696 694 694 694 693 693 696 698 698 700 702 703 705 707 709 711 713 715 717 720 723 725 727 730 733 735 738 741 745 748 751 754 757 759 762 766 769 772 776 779 782 785 788 791 793 796 799 801 804 807 810 812 814 816 819 821 823 824 826 828 830
704 704 706 707 706 704 701 698 699 701 701 702 702 702 702 702 701 699 698 698 698 697 697 697 698 698 697 697 697 695 694 696 698 699 700 702 703 705 707 709 711 713 715 717 721 723 725 728 730 733 735 738 741 744 747 750 753 756 758 761 764 767 770 774 778 781 784 787 789 792 794 797 800 803 805 808 810 813 815 818 820 822 823 825 827 829
701 702 703 703 703 701 698 697 699 699 699 701 703 702 702 703 702 700 700 701 700 699 698 696 696 696 696 697 697 696 695 696 698 699 701 703 704 706 707 709 711 713 715 718 720 722 725 728 730 733 735 738 740 743 746 749 752 754 757 760 762 765 769 772 775 779 782 785 787 790 792 796 799 801 803 805 808 810 813 816 819 822 823 825 826 829
Wind_Speed
4 4 5 9 10 12 10 8 7 2 4 9 8 6 6 4 4 4 4 5 7 7 5 8 8 7 10 12 11 10 9 10 11 11 10 10 10 10 10 9 9 8 6 8 10 12 16 17 17 19 20 20 20 21 22 23 24 24 23 20 18 17 18 20 21 20 20 18 17 17 17 18 18 17 16 15 14 13 12 13 12 11 10 10 9 8
3 6 11 11 7 7 7 4 5 4 4 5 7 7 6 5 4 5 4 4 6 6 3 5 9 7 10 12 12 12 12 12 13 13 12 11 9 9 10 10 8 6 6 9 10 11 15 16 18 20 20 22 22 22 23 23 23 23 22 20 20 20 22 22 22 22 21 19 19 18 19 20 19 18 17 17 16 15 14 13 12 11 11 10 8 7
4 9 9 7 5 6 7 7 6 7 1 3 3 6 5 5 3 4 3 1 2 5 3 4 8 5 8 11 10 10 10 9 10 12 12 11 9 8 10 9 7 7 8 10 9 10 14 16 18 20 20 21 21 21 22 22 23 23 22 22 22 23 23 22 21 21 20 19 18 18 20 20 20 19 18 17 17 15 14 13 12 11 9 8 6 5
5 7 5 8 6 6 6 8 8 6 4 2 3 4 3 4 5 4 3 3 3 3 4 6 5 3 6 6 5 6 5 4 6 8 7 8 9 9 9 8 8 8 9 10 9 9 13 16 18 18 18 19 18 18 19 21 22 23 23 23 23 24 23 22 20 19 19 19 18 18 20 20 20 20 20 18 16 15 13 12 10 8 7 5 4 3
4 5 6 11 8 7 6 7 10 7 5 3 3 3 3 4 5 4 3 3 5 3 5 8 5 1 5 6 5 4 4 4 5 6 6 7 8 8 7 8 9 8 8 10 11 9 10 14 17 17 17 17 17 18 20 21 22 21 23 24 23 22 21 20 19 19 20 20 21 22 22 21 21 21 19 18 16 14 13 11 9 7 5 4 3 3
5 6 5 12 10 8 6 6 9 9 6 3 3 6 6 5 2 3 4 4 5 1 1 5 3 2 5 8 8 5 5 6 6 6 8 8 8 8 8 9 10 8 7 9 10 9 9 13 17 17 17 17 17 19 21 22 22 21 22 22 20 19 19 19 19 20 22 22 24 25 25 24 23 21 17 17 16 13 11 10 8 7 5 4 3 3
5 5 1 7 11 10 7 5 7 10 7 4 5 8 8 4 0 3 5 4 3 3 4 4 4 2 5 9 9 7 7 8 7 8 8 7 9 10 10 9 8 7 7 8 8 9 9 12 15 16 18 18 18 20 21 21 21 21 20 19 17 17 19 20 21 22 23 24 25 25 24 24 24 21 17 16 15 13 11 9 8 7 6 4 4 5
7 9 6 4 9 11 8 5 6 9 8 5 6 9 8 5 3 1 6 3 3 3 2 2 3 3 4 8 10 9 8 8 8 9 9 9 10 11 10 9 8 8 8 8 8 8 9 12 14 16 18 18 19 20 20 19 19 19 17 16 16 17 20 22 22 23 23 24 25 24 23 22 21 20 19 17 15 13 11 10 8 7 6 6 5 7
7 12 10 5 5 7 7 5 7 9 7 5 7 9 8 7 7 3 5 3 1 3 2 5 2 4 3 5 9 10 10 10 9 11 13 13 12 12 11 10 9 9 9 10 9 8 10 13 15 17 17 18 19 19 19 19 18 17 16 17 18 19 21 23 23 23 23 24 24 24 24 22 20 19 20 18 16 14 12 11 10 8 8 7 7 8
5 10 10 7 4 4 5 6 8 9 4 5 8 7 4 4 4 3 4 3 3 2 5 8 6 4 3 3 9 11 12 13 11 12 13 13 13 12 12 12 11 9 9 10 10 8 11 14 17 19 18 18 19 19 19 19 19 18 18 20 21 20 21 22 23 24 24 25 24 24 24 23 21 21 20 19 17 15 13 12 11 10 9 9 9 11
1 3 6 6 4 4 5 6 8 8 6 5 7 6 5 3 3 4 2 4 3 3 6 9 9 5 3 3 7 9 11 15 13 11 13 13 14 14 13 13 12 10 9 10 10 10 12 15 18 20 19 19 19 19 19 20 20 20 19 20 19 19 21 22 23 24 25 25 24 24 24 23 23 22 21 20 18 16 14 13 12 11 10 11 12 13
4 1 3 3 5 6 5 5 7 8 8 5 5 5 5 1 3 4 4 3 3 6 6 8 8 5 4 5 6 9 11 16 16 14 16 17 16 15 13 13 12 10 9 10 10 11 11 12 16 20 19 20 21 20 20 21 21 19 18 19 20 21 23 24 25 25 25 25 24 24 24 22 23 23 21 20 18 16 14 13 13 12 13 13 14 14
4 1 3 3 4 8 5 5 5 6 8 5 4 6 6 2 1 1 1 0 4 6 4 6 9 4 5 6 8 12 11 14 17 16 18 19 17 16 15 13 12 10 10 10 10 11 10 9 13 18 19 19 22 23 22 21 21 19 18 19 20 21 23 25 27 26 26 25 25 24 23 22 22 22 20 18 17 15 13 12 13 14 14 15 16 16
2 2 2 2 3 7 7 6 5 5 8 8 5 7 8 5 4 6 5 2 3 3 4 3 8 3 4 4 8 15 15 16 18 17 16 15 15 15 14 13 11 10 11 10 10 11 11 10 12 16 18 19 21 23 23 22 20 19 18 20 21 21 23 25 26 27 26 26 25 24 23 22 22 20 19 17 15 14 13 12 13 14 15 16 17 17
5 3 4 5 3 5 8 6 5 6 7 7 3 5 5 5 6 6 4 3 3 1 3 1 4 4 3 4 8 13 13 13 13 11 9 8 9 10 10 11 11 11 10 9 10 11 11 14 16 17 18 18 20 23 23 22 21 20 20 22 23 25 26 26 26 27 27 25 24 24 22 22 21 19 18 16 14 13 13 13 14 15 16 17 18 18
6 4 5 5 4 6 8 6 5 7 6 5 2 4 3 5 5 3 3 4 4 2 1 1 4 4 4 4 5 4 5 5 8 7 8 9 9 11 10 11 12 10 9 9 11 11 12 16 19 19 19 18 19 22 23 22 22 22 21 23 25 27 28 27 27 27 26 25 24 23 22 21 20 19 18 16 15 14 13 13 15 17 17 17 18 18
5 4 5 3 4 6 8 8 6 6 6 3 3 5 4 4 6 3 1 1 4 3 1 2 3 3 1 4 4 0 3 6 8 9 10 11 12 13 12 11 12 11 9 10 10 11 12 16 19 21 21 20 20 22 24 23 23 23 22 24 25 26 27 27 27 26 25 24 23 22 22 21 21 20 18 17 16 15 15 15 16 17 18 18 18 18
5 3 4 5 7 7 6 9 7 5 6 5 6 6 3 3 2 3 1 3 4 3 3 1 3 2 1 2 4 2 6 8 9 10 10 10 12 14 12 12 13 12 10 10 10 12 13 15 18 21 22 22 21 23 24 24 24 23 23 25 26 25 26 26 26 25 24 23 23 22 22 21 21 20 18 17 17 17 17 18 18 18 19 19 19 19
2 1 4 5 10 7 4 7 6 6 4 4 6 5 4 4 3 1 3 1 2 3 3 3 3 3 4 4 3 4 9 10 10 10 10 12 14 14 13 13 14 13 11 10 10 10 12 14 17 20 23 24 22 23 25 25 24 23 23 25 26 26 26 25 24 23 22 22 22 22 22 21 21 20 19 18 18 18 18 19 19 19 20 20 19 19
1 1 2 4 8 6 3 5 7 7 3 2 4 5 3 4 4 2 3 2 3 3 2 2 2 3 5 5 7 10 12 13 13 11 12 16 17 15 13 13 13 13 12 10 10 9 10 15 19 20 23 25 23 22 24 25 24 24 24 25 27 26 25 24 23 23 23 22 23 23 22 21 21 21 20 20 19 19 19 19 20 20 20 20 20 20
2 0 1 3 2 6 5 5 8 9 5 4 5 6 4 2 2 3 2 1 3 3 2 2 2 5 6 5 9 13 12 13 15 15 14 15 16 15 14 14 13 12 12 12 11 9 9 15 21 23 24 26 25 23 24 25 25 25 25 26 27 26 25 24 23 23 24 23 23 23 23 22 22 22 22 21 20 20 20 20 21 21 21 21 20 20
1 1 1 2 1 4 4 3 5 7 7 6 5 4 6 4 4 4 4 1 2 3 3 3 1 7 6 4 9 11 10 11 15 16 15 15 16 15 13 14 13 12 12 12 12 11 9 12 20 24 24 25 25 24 24 25 25 26 26 27 27 26 26 25 25 24 24 24 23 23 23 23 23 23 22 22 21 21 21 21 21 21 21 21 21 20
3 1 1 2 3 5 4 1 6 9 8 6 4 3 4 4 5 6 5 3 1 0 1 3 0 6 6 3 5 6 7 10 12 12 11 10 11 11 11 12 12 12 11 12 13 12 10 13 19 22 24 25 25 26 25 25 26 27 27 28 27 26 26 26 26 25 24 23 23 23 23 24 25 24 23 23 22 22 22 22 22 22 22 21 21 20
4 1 1 3 3 2 4 4 3 8 8 5 5 4 5 5 5 5 5 4 4 2 1 1 2 6 6 5 3 2 4 7 7 6 5 5 6 8 10 11 11 11 11 11 12 11 11 14 17 19 21 23 24 26 27 26 26 26 27 28 28 28 27 27 26 25 24 24 24 24 25 26 26 25 24 23 23 23 23 23 23 23 22 21 20 19
3 2 1 1 2 3 3 2 1 4 6 5 6 6 6 6 6 4 3 4 3 4 5 4 4 7 6 5 2 3 5 5 6 6 6 7 7 9 10 10 11 11 11 12 12 12 13 14 14 16 19 21 22 25 26 27 27 26 27 29 30 29 28 27 27 26 25 26 26 26 27 27 26 25 25 25 24 24 24 24 25 23 21 20 20 19
3 3 3 3 3 4 5 5 4 4 5 5 6 9 9 8 8 6 3 4 4 4 4 5 5 8 6 4 1 4 6 6 6 6 7 7 8 9 10 10 11 11 11 12 13 13 13 13 13 15 19 20 22 24 25 27 28 27 27 28 30 31 30 28 28 27 27 27 28 28 28 27 27 26 25 25 25 25 25 26 25 24 21 19 19 18
2 2 3 4 4 5 6 6 3 3 5 5 7 9 9 8 9 7 4 5 5 3 2 5 7 6 8 5 3 4 7 8 7 7 8 8 10 10 10 10 10 10 10 12 13 12 13 13 14 17 19 21 23 24 25 27 29 28 27 28 30 31 31 29 29 28 28 29 29 29 29 28 27 27 26 26 26 26 27 26 25 22 20 18 17 17
3 2 3 5 7 8 8 8 5 5 8 8 7 8 7 7 9 8 6 6 6 5 4 8 5 4 9 8 7 8 7 8 8 10 9 9 11 11 11 11 11 11 10 10 12 13 14 14 14 16 20 23 24 24 24 26 29 28 27 29 30 31 31 30 30 30 29 29 29 29 29 28 27 27 27 27 27 27 27 26 24 21 19 17 15 16
3 2 4 5 6 10 10 10 8 8 10 9 9 9 8 8 11 10 9 7 7 8 8 8 7 8 10 8 9 9 6 5 7 8 8 10 11 11 12 13 13 12 11 11 12 13 14 15 14 16 20 23 25 26 24 24 27 27 26 28 31 32 32 31 31 30 30 30 30 29 29 28 28 28 28 28 29 28 27 25 23 20 18 16 15 16
2 3 4 4 7 11 11 9 9 8 9 10 11 12 11 10 11 11 8 7 8 8 9 8 9 10 9 7 7 5 4 3 4 6 7 10 12 13 14 14 13 13 13 14 15 14 15 15 14 16 20 23 25 26 26 25 26 27 27 28 30 31 32 32 32 31 31 31 30 30 30 29 29 29 29 29 29 29 27 25 22 20 17 15 15 17
1 3 1 1 4 8 7 4 7 9 10 11 11 12 12 11 10 7 3 3 5 5 5 4 6 8 8 4 4 4 7 7 7 9 9 10 12 13 14 14 14 14 14 15 15 14 14 14 14 15 18 22 24 25 26 27 27 26 27 29 30 31 32 33 32 32 32 31 31 31 31 31 30 30 30 30 30 29 27 25 22 19 16 16 17 18
2 3 2 2 3 6 4 2 6 7 9 10 10 11 12 10 8 5 4 5 7 6 3 5 5 7 7 3 4 5 8 9 9 11 10 10 12 14 15 15 15 15 15 14 14 14 15 15 15 16 18 22 25 26 26 28 29 27 26 28 30 31 32 32 32 32 32 32 32 32 32 32 31 31 31 31 30 29 27 24 21 19 17 18 19 19
3 2 2 1 2 6 4 2 5 6 6 5 8 10 11 9 6 3 3 6 7 7 7 6 6 6 5 6 6 6 8 10 10 12 12 12 13 14 15 16 16 16 16 15 15 16 16 15 16 18 21 24 26 28 29 30 32 31 29 29 30 31 32 32 32 32 32 33 34 34 33 33 33 33 32 32 31 29 27 24 21 19 18 19 20 20
1 2 2 1 2 5 5 3 4 6 5 6 6 6 7 6 8 8 5 7 7 5 3 4 6 5 6 8 8 9 9 7 7 9 11 13 14 14 14 15 15 14 14 14 15 15 13 13 15 20 23 26 28 29 30 31 32 32 32 31 32 33 34 33 33 33 33 34 35 35 34 34 34 34 33 33 31 29 26 24 21 19 19 20 21 21
1 1 0 0 1 3 4 4 5 5 6 6 4 2 3 4 8 9 4 5 7 5 5 7 7 5 5 5 5 7 5 4 5 7 9 11 13 14 15 14 14 14 14 14 14 14 13 15 18 22 25 28 30 30 30 30 29 29 30 32 34 34 33 34 34 33 34 35 35 35 36 35 35 34 34 33 32 30 27 24 21 20 20 20 21 21
1 1 1 1 0 1 2 3 5 6 6 3 3 2 3 3 5 7 3 4 6 5 5 7 7 5 4 3 4 6 5 6 7 5 7 9 9 11 13 14 15 16 16 15 16 16 18 21 24 25 26 29 30 31 31 31 30 29 29 31 32 31 31 32 32 33 34 35 35 35 36 36 36 35 35 34 33 31 28 25 22 21 21 21 21 21
2 2 1 1 1 1 1 1 1 1 2 2 2 0 3 4 4 5 3 4 6 5 6 6 5 4 5 4 5 7 7 8 6 2 5 7 8 9 9 10 12 13 12 13 14 16 19 22 23 25 26 28 30 30 31 31 31 30 29 29 29 29 29 29 30 31 33 34 36 37 38 38 37 36 36 35 34 32 29 26 24 22 21 22 22 22
4 3 3 3 2 1 3 2 2 2 1 4 5 5 2 4 6 6 6 1 5 4 6 6 6 6 6 6 7 7 6 6 2 5 6 7 8 8 8 7 9 10 12 15 17 18 20 22 23 26 28 29 29 30 31 32 32 30 29 28 28 28 28 28 28 30 32 33 35 35 35 35 36 36 36 36 34 33 30 28 25 22 21 22 22 23
2 1 2 3 1 1 2 3 2 3 3 5 7 7 5 3 5 4 5 1 6 5 4 6 6 7 7 7 8 8 6 4 4 6 6 10 10 9 10 9 9 11 15 19 22 23 24 26 26 27 28 29 29 30 31 32 32 31 29 28 28 28 27 28 28 30 32 32 31 30 30 32 32 33 34 34 34 33 31 29 26 22 21 21 22 23
3 3 3 3 1 1 2 2 1 3 2 3 6 7 4 1 5 6 3 5 7 5 3 5 7 7 7 7 7 6 6 5 5 5 7 12 10 9 10 10 11 12 15 19 23 25 27 28 28 27 27 29 30 32 33 33 32 30 29 29 29 28 28 28 29 30 31 31 32 32 33 34 34 33 33 33 33 33 31 29 26 23 22 22 22 23
3 3 2 3 2 0 1 2 1 3 2 3 6 6 4 1 5 5 5 7 5 4 3 5 7 6 6 7 6 4 4 3 2 2 7 11 10 9 9 11 14 16 18 21 25 27 27 28 29 29 29 30 31 33 35 34 31 28 28 28 28 28 29 28 28 30 31 32 34 34 35 35 36 36 35 34 33 33 31 29 27 25 24 24 24 25
2 1 0 2 2 1 1 2 1 2 3 3 5 6 2 2 3 4 6 5 2 3 2 3 6 6 6 8 6 2 2 1 3 4 7 9 10 10 9 10 13 15 17 22 26 28 28 26 27 28 28 29 31 33 34 33 31 28 27 27 28 29 29 28 30 31 33 34 35 35 35 35 35 35 34 34 34 33 32 30 27 26 25 25 26 27
3 1 1 1 2 1 2 3 2 1 2 3 5 4 2 3 5 5 3 1 2 2 1 2 5 6 6 6 3 3 5 4 5 5 6 6 7 8 9 11 11 12 16 20 23 27 28 24 24 26 27 29 32 33 34 33 30 28 27 28 29 29 29 30 31 33 34 35 35 34 34 34 34 34 34 34 34 34 33 31 29 27 26 27 28 28
2 2 1 2 2 2 2 1 1 4 4 3 2 1 1 0 3 4 3 1 2 1 1 0 2 6 6 4 3 3 4 5 4 3 5 6 6 7 8 9 10 12 15 19 23 27 28 24 23 24 26 29 32 33 34 34 30 27 27 27 27 28 30 31 32 33 34 35 35 34 34 34 35 35 34 34 34 34 33 32 31 30 28 28 30 30
3 4 3 2 2 3 4 5 5 4 5 4 1 4 4 3 1 3 4 4 2 1 1 2 2 3 6 4 4 3 0 0 1 3 5 5 6 7 8 8 10 12 15 18 23 26 27 25 25 25 25 28 31 32 33 33 31 28 27 27 28 31 32 33 34 35 35 35 35 35 35 35 36 35 35 35 35 34 34 34 33 32 30 30 31 31
3 2 2 2 1 2 3 3 2 2 4 5 3 4 4 2 1 1 4 5 2 1 1 1 2 1 4 6 5 4 4 4 4 4 5 6 6 6 7 7 9 12 15 17 20 23 24 24 25 25 24 25 28 31 31 31 31 30 29 29 30 33 33 34 35 35 35 35 35 35 35 35 34 34 35 36 35 35 34 34 34 34 33 32 32 31
2 1 2 1 1 1 1 2 2 2 3 5 5 4 4 4 4 3 4 3 1 2 1 1 3 2 2 4 4 3 4 5 5 3 3 5 6 6 7 7 8 11 15 17 20 23 24 23 22 23 23 23 26 29 29 29 29 28 28 29 31 33 34 34 35 33 33 34 34 34 35 35 33 33 33 34 34 33 33 34 34 34 34 34 33 32
1 1 1 1 2 1 3 5 3 2 3 4 3 2 2 4 5 4 5 4 3 3 4 3 3 3 2 1 1 1 2 3 4 4 4 4 4 5 6 6 8 10 13 17 21 24 23 22 22 23 23 25 27 29 30 30 28 26 27 29 31 33 33 33 33 33 32 33 33 33 34 34 33 33 33 33 33 32 32 32 33 34 35 36 36 35
1 1 1 2 2 1 3 4 1 0 1 2 2 2 2 3 3 4 5 5 5 4 4 4 2 0 2 2 2 3 4 2 3 5 5 4 5 5 5 6 9 12 15 18 22 23 22 21 22 24 24 25 28 30 30 29 27 26 28 30 32 34 34 33 32 31 31 31 31 32 32 32 33 34 34 32 32 32 32 33 33 34 34 35 35 36
1 1 1 3 2 0 3 4 3 4 2 0 1 3 4 3 2 4 5 5 5 3 3 5 4 2 2 3 4 5 4 2 2 5 5 4 5 5 6 8 11 13 15 19 21 20 20 21 22 23 24 24 27 29 29 27 26 26 28 30 33 34 34 33 31 29 29 30 30 31 31 31 31 32 32 31 31 30 29 30 31 32 32 32 33 34
2 2 3 4 3 4 6 5 3 4 2 3 2 2 4 3 3 5 5 3 3 2 1 4 5 4 4 3 0 4 5 4 3 5 5 4 5 7 9 11 12 13 16 19 21 19 19 20 22 23 23 24 27 29 28 27 27 28 29 30 32 33 34 34 32 29 28 29 30 31 31 30 30 31 31 31 31 31 29 28 28 28 29 29 30 31
Wind_Direction
169 168 201 199 202 200 199 195 192 9 68 142 134 150 171 155 202 217 222 222 156 153 203 174 163 168 167 174 174 172 180 175 165 167 181 186 188 192 189 190 189 195 188 166 171 172 172 179 180 179 180 181 183 187 190 189 189 192 194 195 190 191 195 193 187 182 177 169 159 150 143 137 136 139 136 132 135 139 142 143 142 144 146 152 154 155
158 196 220 207 194 184 174 160 206 264 30 99 137 152 175 172 199 221 212 227 173 165 240 162 153 173 173 175 180 174 176 180 173 176 188 188 188 191 191 191 184 178 162 157 168 171 170 173 173 173 175 177 178 180 184 187 186 188 191 191 186 184 186 186 185 182 177 174 167 155 147 142 137 137 137 134 135 137 139 141 142 144 145 149 152 155
193 222 218 182 140 134 155 158 194 234 285 54 100 134 169 196 205 241 237 326 165 176 236 168 152 175 181 177 180 178 180 187 182 183 188 188 187 189 192 189 176 170 168 168 168 169 170 168 169 171 172 176 177 176 180 183 183 185 188 188 184 182 183 183 183 181 176 171 169 161 154 148 139 136 138 137 137 139 142 140 138 139 140 145 149 152
203 232 183 147 146 137 156 167 173 222 232 90 78 121 169 193 175 212 243 31 55 125 151 142 130 168 184 170 168 177 172 160 172 178 182 190 193 195 196 190 186 180 174 172 166 169 172 168 168 169 170 172 171 173 176 179 182 184 187 189 188 186 184 183 181 179 174 164 160 157 152 149 142 137 137 138 138 140 142 137 133 134 133 142 150 154
242 267 165 154 169 152 148 167 165 195 227 162 129 168 179 168 169 185 183 96 56 54 117 116 92 202 191 179 172 158 143 144 158 163 171 190 194 194 196 196 199 192 178 173 169 173 172 166 169 168 168 169 168 174 179 181 184 186 188 190 191 188 182 182 182 178 171 160 154 148 143 141 137 135 138 140 137 136 137 135 132 128 125 132 138 151
252 279 162 158 175 164 146 169 174 177 205 215 199 213 198 163 147 87 108 101 74 14 220 123 108 256 204 195 190 167 168 173 165 175 186 188 187 193 201 202 199 190 180 176 173 177 170 164 167 166 167 169 171 179 184 186 189 191 191 190 188 182 178 181 182 178 172 165 160 152 147 144 140 137 141 145 142 139 140 136 131 125 115 114 117 130
226 256 219 162 172 170 168 185 187 169 172 229 226 210 203 179 86 63 91 98 131 200 238 158 150 204 204 204 198 177 183 184 173 188 196 191 193 200 206 205 198 186 175 174 178 180 172 166 163 162 167 172 177 184 186 188 192 194 192 188 182 173 175 183 179 175 174 168 164 162 158 156 152 146 143 147 149 147 147 139 129 122 109 104 110 121
184 214 248 217 170 176 190 192 192 165 158 223 217 185 185 187 219 134 89 97 183 178 222 206 136 137 198 210 193 175 183 189 183 194 203 203 204 205 206 206 199 190 175 173 178 176 175 172 165 164 170 176 183 187 189 189 192 195 189 180 174 168 179 184 175 174 177 171 167 166 162 158 157 155 147 148 151 148 148 139 127 119 112 110 116 125
168 198 216 209 178 189 188 163 164 156 157 215 195 172 177 185 198 175 104 103 130 108 194 246 177 148 234 222 180 177 192 199 194 199 208 210 209 206 205 209 205 192 181 176 177 174 173 173 172 171 173 180 186 188 189 189 192 192 182 181 184 180 183 181 173 174 177 175 173 168 163 157 156 157 151 151 151 148 146 136 126 120 118 121 126 132
169 197 196 173 183 198 163 145 150 152 172 194 166 149 138 166 167 142 138 129 95 112 211 221 193 176 268 231 173 180 198 206 205 206 212 212 210 208 205 209 207 192 183 179 175 173 169 171 174 175 177 184 188 188 187 188 191 185 181 192 192 182 180 178 175 175 174 175 175 171 168 162 157 156 154 152 149 147 145 134 127 124 125 131 135 137
205 183 181 164 178 185 153 150 155 163 172 139 134 119 80 66 57 69 97 101 110 247 225 202 192 186 249 242 186 184 193 199 203 209 213 212 208 206 205 207 204 193 184 176 173 171 165 166 171 174 181 188 189 187 184 188 191 181 182 188 179 174 182 180 176 176 174 175 176 176 175 169 164 162 159 156 150 147 145 135 130 130 133 138 140 140
282 152 194 194 166 158 141 154 162 175 178 138 123 133 117 79 25 35 11 52 164 240 234 190 173 165 225 246 209 203 198 194 198 205 207 208 205 202 202 203 200 194 183 172 171 172 164 163 168 172 180 185 185 183 179 187 192 182 178 173 167 178 185 179 179 179 176 176 178 179 178 176 173 170 167 162 155 151 146 138 136 139 141 141 141 142
261 195 240 280 174 162 151 159 162 172 190 182 129 138 152 168 95 168 244 180 204 247 269 174 148 149 239 238 205 206 208 199 200 205 205 204 200 196 197 198 195 191 183 174 172 172 170 170 169 170 175 177 178 179 176 181 189 187 180 169 171 184 181 175 178 178 176 178 181 181 181 180 177 173 171 166 159 156 150 146 146 148 148 145 144 144
223 316 283 247 195 176 163 162 168 171 187 194 169 156 168 163 162 197 211 235 225 266 320 158 148 171 260 252 200 196 206 207 204 208 206 201 197 192 192 191 189 189 185 178 173 171 173 177 174 170 173 173 173 175 174 174 181 187 180 170 177 187 182 176 175 174 177 180 181 183 183 182 180 174 171 167 162 159 153 151 153 153 153 149 146 145
180 256 238 200 211 189 176 175 163 147 170 197 186 139 159 166 171 193 193 194 208 233 347 75 163 181 199 235 208 196 210 212 202 201 189 177 182 180 182 187 187 190 185 177 174 172 172 178 179 176 174 174 171 169 169 172 178 182 178 171 176 182 181 179 175 174 179 179 179 182 183 182 181 176 170 165 163 159 154 154 155 155 155 151 148 145
169 234 252 209 205 176 172 178 143 128 161 203 141 118 184 187 149 138 169 168 156 131 66 175 212 215 198 251 258 223 237 205 173 167 152 153 163 164 177 188 189 189 182 175 173 169 170 176 180 180 177 175 172 168 169 174 179 181 179 175 176 177 177 177 176 175 178 177 177 180 182 182 179 174 168 163 159 156 155 156 157 156 155 153 149 145
157 251 279 183 200 196 169 172 174 161 163 170 157 176 202 166 121 109 191 68 95 142 219 213 248 302 288 277 307 8 184 174 166 167 163 162 162 167 180 186 188 189 178 173 173 167 166 174 179 180 177 173 173 172 173 177 182 183 181 178 176 174 172 174 176 176 176 175 175 177 181 181 177 173 170 164 158 154 154 156 157 157 155 153 150 147
150 239 277 164 190 227 181 166 192 190 152 148 193 196 145 108 96 97 148 10 62 168 259 269 216 259 175 243 323 78 154 178 180 174 168 164 165 174 184 184 186 186 174 168 171 167 165 171 178 178 176 174 176 178 177 178 182 185 183 180 176 172 169 171 175 175 175 175 176 177 178 177 175 174 171 165 159 155 154 156 159 159 156 153 152 152
152 195 281 186 183 209 171 158 195 216 182 156 186 187 137 168 218 86 139 160 107 165 277 300 243 236 196 214 258 190 180 185 182 169 163 169 177 182 183 183 183 179 174 169 166 169 167 168 173 174 171 173 177 178 175 174 178 181 181 179 175 172 170 172 174 175 176 178 178 177 177 176 175 173 170 165 160 158 157 159 161 161 158 156 157 157
298 112 277 221 183 163 142 174 191 204 214 107 150 173 169 179 196 174 149 165 154 163 226 274 276 255 229 217 211 207 196 180 173 173 177 183 187 186 182 180 179 177 176 171 166 170 169 166 168 169 166 167 171 172 168 169 175 176 175 173 172 170 170 173 177 177 176 177 177 175 174 175 174 172 170 166 162 161 161 163 164 162 159 159 161 161
326 80 259 273 196 153 177 210 191 183 180 160 166 181 186 169 154 178 182 138 139 148 171 197 264 259 244 209 200 211 204 182 177 180 187 192 190 187 182 177 174 172 172 172 169 167 167 165 165 165 165 163 163 163 163 167 172 173 172 170 169 169 171 173 176 176 175 174 175 174 173 174 173 171 169 166 164 163 163 165 165 163 162 162 163 163
231 209 260 303 227 175 192 183 158 171 173 168 175 190 187 160 119 163 209 251 113 140 166 157 231 266 256 212 205 209 195 189 191 186 187 193 190 185 180 173 170 168 168 170 169 165 163 161 158 160 162 159 156 159 162 166 169 169 169 169 169 170 172 174 175 175 173 172 174 175 174 173 172 170 168 165 165 165 166 167 165 164 164 164 164 166
179 152 326 279 232 214 241 237 157 163 158 160 189 197 166 145 126 158 194 226 209 190 138 122 219 273 270 263 240 221 191 193 200 195 191 190 184 177 168 165 165 164 163 163 162 162 160 155 153 155 157 156 157 160 163 165 166 167 168 168 169 169 170 173 174 175 174 174 175 175 173 171 170 169 168 166 167 168 169 168 167 166 167 166 165 166
185 175 333 303 290 280 303 322 148 152 143 159 202 187 162 170 161 156 167 175 189 210 158 118 277 270 281 300 277 204 167 173 179 180 169 147 153 160 158 160 162 160 160 158 157 156 151 148 149 151 153 155 157 160 164 166 166 167 167 166 168 170 171 172 173 174 175 174 172 171 170 169 169 169 168 168 170 171 171 170 169 169 169 168 167 167
198 195 109 25 7 49 48 36 110 179 176 180 199 194 190 179 143 128 136 143 191 221 165 148 246 256 278 316 317 132 128 141 152 149 141 138 148 157 157 159 161 159 158 158 157 152 148 147 148 151 153 155 158 162 165 165 165 166 167 166 167 170 172 172 173 173 173 171 169 168 168 168 169 170 170 171 172 173 173 172 171 170 170 169 169 169
181 193 141 116 134 144 164 183 193 203 192 182 192 195 198 184 154 146 145 148 213 240 155 153 227 259 286 325 13 133 134 144 154 142 137 144 154 159 160 160 161 159 158 158 158 154 151 149 151 154 156 158 161 164 165 164 164 167 167 166 168 170 171 172 172 172 171 170 168 167 168 169 171 172 172 173 174 174 174 173 171 171 172 172 172 172
127 213 173 162 191 195 201 222 230 162 169 193 203 196 195 185 166 150 136 167 193 178 175 213 214 251 283 277 221 192 162 157 164 157 151 153 157 159 159 158 158 159 158 157 157 156 154 154 156 157 159 162 164 166 167 164 164 167 168 167 169 171 171 171 172 171 170 170 169 169 170 172 173 174 175 175 175 175 174 173 172 173 174 175 176 177
94 290 217 195 230 241 234 246 251 180 176 191 198 196 191 170 160 160 178 199 172 139 241 255 196 206 263 253 223 213 180 165 176 174 167 159 158 159 154 154 156 155 156 156 156 156 156 157 160 160 162 165 164 165 168 166 165 169 170 168 168 171 171 171 171 171 171 170 170 171 172 174 175 176 176 176 175 175 173 173 174 175 175 176 179 182
117 277 230 205 248 257 247 244 237 204 188 182 182 188 185 163 161 176 197 200 164 163 228 237 178 200 246 247 226 211 180 170 179 171 160 150 150 154 153 154 156 154 154 158 159 160 159 159 163 163 163 165 164 164 167 166 166 169 170 168 168 170 172 173 172 172 172 173 173 173 174 175 176 176 176 176 175 174 173 173 175 175 176 177 181 182
116 262 233 216 258 266 254 231 215 206 188 176 183 188 179 171 176 185 200 198 179 198 232 215 192 222 242 234 223 198 132 106 112 117 129 142 149 155 156 156 160 162 164 165 167 169 165 163 165 164 164 165 165 165 166 167 168 170 170 169 168 169 172 174 174 174 174 174 175 174 175 175 175 176 175 175 174 174 173 174 175 175 177 178 180 179
160 243 229 134 258 273 270 208 190 202 189 178 190 190 174 172 184 187 189 181 183 226 252 192 189 242 256 221 186 149 125 124 130 136 145 153 156 157 159 163 168 171 171 170 170 170 166 164 164 165 166 166 167 168 168 168 170 172 173 171 171 171 173 175 176 176 176 176 176 175 175 175 175 175 175 175 174 174 174 174 174 175 175 176 176 175
171 242 337 31 272 281 303 136 165 187 177 171 190 192 175 170 179 181 183 186 186 189 158 128 172 242 255 194 136 134 139 140 147 154 156 160 163 162 167 172 175 176 174 171 170 169 168 168 168 169 168 166 167 171 172 169 168 172 176 174 173 173 174 176 177 177 178 178 176 175 175 176 175 175 175 174 174 174 174 174 173 173 173 174 174 173
155 221 278 322 264 277 309 91 138 132 128 173 209 192 176 170 161 152 194 211 197 165 140 156 209 233 210 158 139 146 157 159 169 171 165 163 167 171 176 178 179 180 177 174 173 173 173 173 172 170 167 168 171 175 175 173 171 175 178 176 174 175 176 178 179 179 179 178 177 176 176 176 176 175 174 174 174 174 174 174 172 172 174 175 175 173
182 204 242 245 242 275 315 17 111 119 145 223 233 182 166 171 162 158 191 219 210 190 181 228 248 229 178 166 164 169 173 169 173 174 166 162 168 176 182 183 181 179 177 177 178 177 174 170 169 169 168 172 176 176 176 177 176 177 179 178 178 180 179 179 179 179 179 178 177 177 176 176 176 175 174 174 174 174 174 174 174 174 177 177 175 172
221 26 302 267 217 275 333 54 118 164 215 246 272 158 155 163 153 146 164 229 224 237 265 265 259 229 186 165 152 152 150 116 118 150 167 173 175 175 178 181 179 175 176 179 179 177 174 168 168 171 172 174 176 175 176 178 177 176 178 180 181 181 181 180 179 179 179 177 177 177 176 176 175 174 174 174 174 175 175 175 175 174 177 178 175 172
187 68 180 221 235 288 7 102 155 211 250 298 2 65 116 118 127 111 79 271 242 212 218 244 249 225 174 129 112 120 117 98 102 138 176 182 182 180 179 180 180 179 181 181 180 178 176 175 174 173 173 173 174 175 176 177 178 177 178 181 182 182 182 181 177 177 178 177 176 177 177 176 175 174 173 174 174 175 175 174 174 174 176 177 174 172
162 182 222 242 240 175 123 157 218 283 321 348 349 169 137 151 177 146 132 259 252 197 190 226 231 184 152 132 123 126 114 93 87 178 205 188 183 184 182 180 178 179 178 174 175 175 175 176 174 171 169 170 173 176 176 176 178 178 178 180 182 182 182 181 178 178 178 177 178 178 178 178 176 174 173 174 175 175 175 174 173 173 174 175 173 171
137 180 212 201 193 109 96 88 38 62 224 250 256 263 242 190 194 162 128 221 267 225 197 209 195 163 146 137 136 134 107 90 120 232 211 183 174 166 163 166 167 169 166 162 163 167 170 172 171 170 170 171 174 178 177 176 178 177 177 179 181 181 181 182 181 179 179 179 179 178 177 177 176 175 174 175 176 176 175 173 172 172 173 175 174 171
102 95 132 129 83 15 109 116 132 165 206 244 253 271 285 214 186 133 103 218 266 251 197 190 183 167 155 152 151 140 117 125 230 243 193 172 172 164 160 162 160 163 167 167 167 168 170 171 171 171 171 172 174 177 178 178 178 176 177 179 180 181 182 183 183 181 180 179 176 174 176 176 176 177 177 176 178 179 177 173 172 171 172 174 172 168
305 13 67 101 106 220 148 118 200 209 218 258 258 276 295 172 126 103 130 237 261 263 208 177 178 176 161 155 157 147 143 173 225 238 177 165 165 162 161 163 162 162 165 168 171 171 170 169 168 169 172 174 175 177 178 179 179 178 180 181 180 183 185 185 183 181 179 177 175 177 180 180 181 183 183 181 181 180 178 176 172 170 170 171 168 164
312 1 78 126 127 180 114 89 256 248 250 263 271 284 292 102 95 109 200 227 253 280 245 172 175 186 163 160 176 174 165 177 189 163 156 152 154 160 160 158 162 165 165 167 169 168 167 169 171 173 176 177 176 176 178 178 179 181 182 181 182 186 188 185 181 179 177 176 177 180 181 182 183 186 186 186 184 182 180 179 175 171 170 170 167 164
247 324 15 108 92 27 44 94 35 286 254 269 296 301 300 124 138 195 219 218 219 278 279 174 182 193 177 179 188 149 107 82 64 106 141 150 155 159 154 149 153 160 164 166 168 167 167 170 174 174 176 177 175 176 178 178 180 182 181 182 187 189 186 181 179 178 177 177 179 181 182 182 183 184 185 186 185 184 182 180 178 175 173 171 169 165
191 154 287 215 156 98 37 46 51 220 237 321 342 340 58 135 193 210 204 223 237 233 224 190 198 203 198 195 187 54 43 34 44 86 130 144 147 148 153 158 156 156 161 163 166 170 168 168 172 173 173 175 176 177 179 180 181 182 182 186 190 187 182 179 178 178 178 178 180 182 182 181 181 183 185 186 186 186 184 181 179 178 176 175 172 167
201 175 233 236 182 121 80 360 216 217 250 310 360 229 249 221 200 179 130 71 312 259 199 172 204 210 209 184 127 67 31 28 41 81 119 131 140 146 156 163 158 158 163 164 167 171 169 167 170 171 172 176 177 178 181 182 182 182 185 188 187 181 177 177 176 176 177 178 180 181 182 182 183 185 189 189 188 187 186 184 182 180 179 179 175 171
223 200 181 187 189 162 177 217 230 241 270 295 239 237 284 324 239 178 140 103 43 308 239 28 30 206 200 164 132 137 164 301 161 158 147 148 158 160 160 165 166 165 166 166 168 171 170 167 168 168 171 176 178 180 183 185 184 183 185 187 184 179 177 176 175 175 177 179 181 181 182 183 184 187 191 191 189 188 187 185 184 181 181 181 179 177
253 215 156 159 222 203 191 220 263 327 315 316 309 280 294 329 296 198 98 87 51 296 216 341 350 247 175 164 162 176 203 203 186 179 172 162 160 160 155 157 161 162 162 163 165 168 167 165 166 166 168 173 178 181 184 187 188 187 186 186 184 181 179 176 175 176 177 179 180 181 181 182 183 186 190 191 190 191 191 189 187 184 183 184 185 185
275 170 117 53 30 95 170 256 334 358 307 303 314 327 4 12 347 360 56 75 53 4 3 312 320 3 104 152 178 190 196 188 178 186 181 157 154 162 158 153 155 159 163 164 164 164 163 161 163 165 165 169 176 181 183 188 191 191 187 183 182 181 179 176 175 176 177 178 179 180 182 183 182 184 188 189 188 190 192 192 191 188 187 187 189 191
274 148 116 69 55 98 230 259 289 302 270 273 283 301 15 19 12 15 28 48 71 48 18 3 351 8 42 53 216 121 119 154 164 165 157 144 148 154 150 151 153 154 158 162 163 164 164 163 165 167 166 170 176 180 184 188 190 190 186 182 180 179 177 176 176 177 177 178 179 181 183 183 183 184 187 188 188 189 191 191 192 192 193 194 195 195
265 305 146 116 56 354 254 254 266 67 320 335 346 327 317 343 26 42 36 39 60 71 64 49 19 327 151 161 162 113 93 103 147 142 138 136 137 140 141 144 148 149 154 160 165 168 168 168 169 169 170 173 176 179 183 186 187 188 186 183 181 179 177 177 177 177 178 178 179 180 182 184 185 186 187 188 188 191 195 197 198 199 200 201 201 200
309 319 132 113 88 272 238 222 164 139 151 240 5 2 344 331 37 63 53 42 38 48 80 78 57 50 116 150 157 130 117 139 141 124 126 132 135 140 142 141 144 148 153 159 165 169 171 171 172 171 172 174 176 178 182 184 184 186 187 184 182 181 179 177 176 176 177 178 179 181 183 184 185 186 186 187 188 190 194 199 202 205 205 205 205 203
191 190 165 146 165 236 247 230 164 125 146 202 216 357 354 352 73 75 63 47 20 337 12 85 77 52 26 7 118 133 133 149 145 123 118 124 136 145 148 150 151 152 155 160 164 167 169 170 171 172 172 174 177 179 182 182 183 186 187 186 185 183 181 178 175 175 177 179 181 183 184 184 184 186 186 188 190 190 190 193 199 205 208 207 203 199